Weather Roundup
Issued by NWS Springfield, MO

Home | Current Version | Previous Version | Text Only | Print | Product List | Glossary On
Versions: 1 2 3 4 5 6 7 8 9 10 11 12 13 14 15 16 17 18 19 20 21 22 23 24 25 26 27 28 29 30 31 32 33 34 35 36 37 38 39 40 41 42 43 44 45 46 47 48 49 50
000
NZUS99 KSGF 032207
HRRSGF

HOURLY WEATHER
NATIONAL WEATHER SERVICE SPRINGFIELD MO
500 PM CDT WED JUN 03 2015

......SGF CWA......

CITY           SKY/WX    TMP DP  RH WIND       PRES   REMARKS
SPRINGFIELD    CLOUDY    76  65  68 E14       29.95F
JOPLIN         PTSUNNY   83  68  60 S12G17    29.90F
WEST PLAINS    CLOUDY    72  63  73 E5        30.03S
ROLLA          LGT RAIN  68  65  90 SE10      29.92F
OSAGE BEACH    CLOUDY    66  64  94 SE8G18    29.90R
BRANSON        PTSUNNY   79  66  65 E14       29.98F

......SURROUNDING SGF CWA......

CITY           SKY/WX    TMP DP  RH WIND       PRES   REMARKS
CHANUTE        PTSUNNY   84  70  62 S15       29.89R
PARSONS        MOSUNNY   84  70  62 S8G20     29.90R
COFFEYVILLE    SUNNY     85  70  60 S18       29.86F
EMPORIA        PTSUNNY   83  69  62 S14G22    29.86F
GROVE OK       MOSUNNY   86  68  54 S9G16     29.91F
ROGERS AR      MOSUNNY   84  65  52 VRB3      29.95F
SILOAM SPRINGS MOSUNNY   84  64  51 S8        29.94F
HARRISON AR    PTSUNNY   79  67  66 E9        29.98F
NEAR YELLVILLE   N/A     79  66  65 E8        29.97F

......KANSAS AND MISSOURI......

CITY           SKY/WX    TMP DP  RH WIND       PRES   REMARKS
KANSAS CTY INT CLOUDY    70  64  81 W3        29.90R
DOWNTOWN KC    CLOUDY    73  62  68 CALM      29.87F
COLUMBIA       CLOUDY    68  65  90 SE14      29.88S
SEDALIA        CLOUDY    69  64  84 W8        29.93R
ST JOSEPH      CLOUDY    74  64  71 VRB5      29.90R
ST LOUIS       CLOUDY    76  58  53 S6        29.97F
SPIRIT OF STL  CLOUDY    73  62  68 S7        29.95F
KIRKSVILLE     CLOUDY    70  65  84 S5        29.94R
WICHITA        MOSUNNY   89  66  46 S21       29.81S HX  91
TOPEKA         CLOUDY    80  69  69 S16G24    29.86F THUNDER
OLATHE         LGT RAIN  70  65  84 S22G31    29.83F

......TENNESSEE......

CITY           SKY/WX    TMP DP  RH WIND       PRES   REMARKS
MEMPHIS        PTSUNNY   76  59  55 N7        29.98F
NASHVILLE      PTSUNNY   77  61  57 NW7       29.99F

......ARKANSAS.......

CITY           SKY/WX    TMP DP  RH WIND       PRES   REMARKS
FAYETTEVILLE   MOSUNNY   81  65  58 VRB5      29.95F
FT SMITH       MOSUNNY   87  65  47 E8        29.91F
LITTLE ROCK    PTSUNNY   79  63  57 E7        29.97F

......OKLAHOMA.......

CITY           SKY/WX    TMP DP  RH WIND       PRES   REMARKS
TULSA          PTSUNNY   87  68  52 S16G24    29.84F HX  90
PONCA CITY     SUNNY     89  68  49 S9G23     29.82S HX  93
MCALESTER      MOSUNNY   84  67  56 S5        29.91F
OKLAHOMA CITY  MOSUNNY   88  66  48 S21G26    29.87F HX  90

......IOWA............

CITY           SKY/WX    TMP DP  RH WIND       PRES   REMARKS
DES MOINES     PTSUNNY   78  64  61 S12       29.89F
QUAD CITIES    SUNNY     78  58  49 S10       29.91F

......ILLINOIS........

CITY           SKY/WX    TMP DP  RH WIND       PRES   REMARKS
QUINCY         PTSUNNY   71  62  73 SE14      29.91F
CHICAGO        PTSUNNY   76  54  46 S6        29.97F




USA.gov is the U.S. government's official web portal to all federal, state and local government web resources and services.